Tracking 18980 objects as of 18-Feb-2018
HD Live streaming from Space Station
objects crossing your sky now

ASTRA 2D

Track ASTRA 2D now!
ASTRA 2D is classified as:


NORAD ID: 26638
Int'l Code: 2000-081A
Perigee: 35,784.7 km
Apogee: 35,802.4 km
Inclination: 4.1 °
Period: 1,436.1 minutes
Semi major axis: 42164 km
RCS: 0.6797 m2 (medium)
Launch date: December 20, 2000
Source: SOCIETE EUROPEENNE DES SATELLITES (SES)
Launch site: FRENCH GUIANA (FRGUI)

Direct-to-home; broadcasting, multimedia; 16 Ku-band; UK and Ireland.
aabbcc
Your satellite tracking list
Your tracking list is empty




NASA's NSSDC Master Catalog

Two Line Element Set (TLE):
1 26638U 00081A   18048.61666043  .00000043  00000-0  00000+0 0  9993
2 26638   4.1222  68.9279 0002103 252.0451 108.2090  1.00272383 62895
Source of the keplerian elements: AFSPC